QPF
0.02 0.07 0.09 0.04 0.04 0.04 0.04 0.07 0.08 0.07 0.03 0.02 0.03 0.01 0.01 0.01 0.00 0.00 0.01 0.01 0.01 0.01 0.01 0.00 0.00 0.00 0.00 0.00 0.00 0.00 0.00 0.00 0.00 0.00 0.00 0.00 0.00 0.00 0.00 0.00 0.00 0.00 0.00 0.01
0.04 0.05 0.03 0.02 0.01 0.02 0.04 0.04 0.05 0.07 0.03 0.02 0.02 0.02 0.02 0.01 0.00 0.00 0.01 0.01 0.01 0.01 0.00 0.00 0.00 0.00 0.00 0.00 0.00 0.00 0.00 0.00 0.00 0.00 0.00 0.00 0.00 0.01 0.01 0.01 0.01 0.01 0.01 0.02
0.02 0.02 0.02 0.02 0.01 0.01 0.03 0.04 0.05 0.08 0.07 0.02 0.01 0.02 0.02 0.02 0.01 0.00 0.00 0.00 0.00 0.00 0.00 0.00 0.00 0.00 0.00 0.00 0.00 0.00 0.00 0.00 0.00 0.00 0.00 0.01 0.01 0.00 0.00 0.01 0.01 0.01 0.01 0.02
0.01 0.01 0.01 0.01 0.02 0.02 0.04 0.03 0.02 0.02 0.05 0.06 0.02 0.03 0.01 0.01 0.00 0.00 0.00 0.00 0.00 0.00 0.00 0.00 0.00 0.00 0.00 0.00 0.00 0.00 0.00 0.00 0.00 0.00 0.00 0.00 0.00 0.00 0.00 0.01 0.01 0.01 0.01 0.01
0.02 0.01 0.01 0.01 0.03 0.02 0.04 0.02 0.01 0.02 0.03 0.04 0.03 0.02 0.01 0.00 0.00 0.00 0.00 0.00 0.00 0.00 0.00 0.00 0.00 0.00 0.00 0.00 0.00 0.00 0.00 0.00 0.00 0.00 0.00 0.00 0.00 0.00 0.00 0.00 0.01 0.01 0.02 0.02
0.01 0.00 0.01 0.01 0.01 0.01 0.03 0.01 0.01 0.01 0.03 0.05 0.02 0.03 0.03 0.01 0.00 0.00 0.00 0.00 0.00 0.00 0.00 0.00 0.00 0.00 0.00 0.00 0.00 0.00 0.00 0.00 0.00 0.00 0.00 0.00 0.00 0.00 0.00 0.00 0.01 0.01 0.03 0.03
0.01 0.01 0.00 0.00 0.00 0.01 0.01 0.03 0.05 0.05 0.05 0.04 0.01 0.01 0.02 0.01 0.00 0.00 0.00 0.00 0.00 0.00 0.00 0.00 0.00 0.00 0.00 0.00 0.00 0.00 0.00 0.00 0.00 0.00 0.00 0.00 0.00 0.01 0.01 0.00 0.00 0.01 0.02 0.02
0.02 0.02 0.00 0.00 0.00 0.01 0.00 0.02 0.07 0.09 0.08 0.03 0.00 0.00 0.00 0.00 0.00 0.00 0.00 0.00 0.00 0.00 0.00 0.00 0.00 0.00 0.00 0.00 0.00 0.00 0.00 0.00 0.00 0.00 0.00 0.00 0.01 0.01 0.01 0.00 0.00 0.00 0.00 0.02
0.03 0.02 0.00 0.00 0.00 0.00 0.00 0.01 0.02 0.03 0.03 0.01 0.00 0.00 0.00 0.00 0.00 0.00 0.00 0.00 0.00 0.00 0.00 0.00 0.00 0.00 0.00 0.00 0.00 0.00 0.00 0.00 0.00 0.00 0.00 0.01 0.01 0.01 0.01 0.00 0.00 0.00 0.00 0.01
0.01 0.02 0.01 0.00 0.00 0.00 0.00 0.01 0.00 0.00 0.01 0.01 0.00 0.00 0.00 0.00 0.00 0.00 0.00 0.00 0.00 0.00 0.00 0.00 0.00 0.00 0.00 0.00 0.00 0.00 0.00 0.00 0.00 0.00 0.00 0.00 0.00 0.00 0.00 0.01 0.00 0.00 0.00 0.01
0.00 0.02 0.01 0.00 0.00 0.00 0.00 0.00 0.00 0.00 0.00 0.00 0.00 0.00 0.00 0.00 0.00 0.00 0.00 0.00 0.00 0.00 0.00 0.00 0.00 0.00 0.00 0.00 0.00 0.00 0.00 0.00 0.00 0.00 0.00 0.00 0.00 0.00 0.00 0.00 0.00 0.01 0.00 0.00
0.00 0.01 0.01 0.00 0.00 0.00 0.00 0.00 0.00 0.00 0.00 0.00 0.00 0.00 0.00 0.00 0.00 0.00 0.00 0.00 0.00 0.00 0.00 0.00 0.00 0.00 0.00 0.00 0.00 0.00 0.00 0.00 0.00 0.00 0.00 0.00 0.00 0.00 0.00 0.00 0.00 0.00 0.00 0.00
0.00 0.01 0.03 0.02 0.01 0.00 0.00 0.00 0.00 0.00 0.00 0.00 0.00 0.00 0.00 0.00 0.00 0.00 0.00 0.00 0.00 0.00 0.00 0.00 0.00 0.00 0.00 0.00 0.00 0.00 0.00 0.00 0.00 0.00 0.00 0.00 0.00 0.00 0.00 0.00 0.00 0.00 0.00 0.00
0.00 0.01 0.03 0.03 0.02 0.01 0.00 0.00 0.00 0.00 0.00 0.00 0.00 0.00 0.00 0.00 0.00 0.00 0.00 0.00 0.00 0.00 0.00 0.00 0.00 0.00 0.00 0.00 0.00 0.00 0.00 0.00 0.00 0.00 0.00 0.00 0.00 0.00 0.00 0.00 0.00 0.00 0.00 0.00
0.00 0.01 0.01 0.01 0.00 0.00 0.01 0.01 0.00 0.00 0.00 0.00 0.00 0.00 0.00 0.00 0.00 0.00 0.00 0.00 0.00 0.00 0.00 0.00 0.00 0.00 0.00 0.00 0.00 0.00 0.00 0.00 0.00 0.00 0.00 0.00 0.00 0.00 0.00 0.00 0.00 0.00 0.00 0.00
0.00 0.00 0.00 0.00 0.00 0.00 0.00 0.00 0.00 0.00 0.00 0.00 0.00 0.00 0.00 0.00 0.00 0.00 0.00 0.00 0.00 0.00 0.00 0.00 0.00 0.00 0.00 0.00 0.00 0.00 0.00 0.00 0.00 0.00 0.00 0.00 0.00 0.00 0.00 0.00 0.00 0.00 0.00 0.01
0.00 0.00 0.00 0.00 0.00 0.00 0.00 0.00 0.00 0.00 0.00 0.00 0.00 0.00 0.00 0.00 0.00 0.00 0.00 0.00 0.00 0.00 0.00 0.00 0.00 0.00 0.00 0.00 0.00 0.00 0.00 0.00 0.00 0.00 0.00 0.00 0.00 0.00 0.00 0.00 0.00 0.00 0.00 0.00
0.00 0.00 0.00 0.00 0.00 0.00 0.00 0.00 0.00 0.00 0.00 0.00 0.00 0.00 0.00 0.00 0.00 0.00 0.00 0.00 0.00 0.00 0.00 0.00 0.00 0.00 0.00 0.00 0.00 0.00 0.00 0.00 0.00 0.00 0.00 0.00 0.00 0.00 0.00 0.00 0.00 0.00 0.00 0.00
0.00 0.00 0.00 0.00 0.00 0.00 0.00 0.00 0.00 0.00 0.00 0.00 0.00 0.00 0.00 0.00 0.00 0.00 0.00 0.00 0.00 0.00 0.00 0.00 0.00 0.00 0.00 0.00 0.00 0.00 0.00 0.00 0.00 0.00 0.00 0.00 0.00 0.00 0.00 0.00 0.00 0.00 0.00 0.00
0.00 0.00 0.00 0.00 0.00 0.00 0.00 0.00 0.00 0.00 0.01 0.00 0.00 0.00 0.00 0.00 0.00 0.00 0.00 0.00 0.00 0.00 0.00 0.00 0.00 0.00 0.00 0.00 0.00 0.00 0.00 0.00 0.00 0.00 0.00 0.00 0.00 0.00 0.00 0.00 0.00 0.00 0.00 0.00
0.00 0.00 0.00 0.00 0.00 0.00 0.00 0.00 0.00 0.00 0.01 0.00 0.00 0.00 0.00 0.00 0.00 0.00 0.00 0.00 0.00 0.00 0.00 0.00 0.00 0.00 0.00 0.00 0.00 0.00 0.00 0.00 0.00 0.00 0.00 0.00 0.00 0.00 0.00 0.00 0.00 0.00 0.00 0.00
0.00 0.00 0.00 0.00 0.00 0.00 0.00 0.00 0.00 0.00 0.00 0.00 0.00 0.00 0.00 0.00 0.00 0.00 0.00 0.00 0.00 0.00 0.00 0.00 0.00 0.00 0.00 0.00 0.00 0.00 0.00 0.00 0.00 0.00 0.00 0.00 0.00 0.00 0.00 0.00 0.00 0.00 0.00 0.00
0.00 0.00 0.00 0.00 0.00 0.00 0.00 0.00 0.01 0.00 0.00 0.00 0.00 0.00 0.00 0.00 0.00 0.00 0.00 0.00 0.00 0.00 0.00 0.00 0.00 0.00 0.00 0.00 0.00 0.00 0.00 0.00 0.00 0.00 0.00 0.00 0.00 0.00 0.00 0.00 0.00 0.00 0.00 0.00
0.00 0.00 0.00 0.00 0.00 0.00 0.00 0.00 0.00 0.00 0.00 0.00 0.00 0.00 0.00 0.00 0.00 0.00 0.00 0.00 0.00 0.00 0.00 0.00 0.00 0.00 0.00 0.00 0.00 0.00 0.00 0.00 0.00 0.00 0.00 0.00 0.00 0.00 0.00 0.00 0.00 0.00 0.00 0.00
0.00 0.00 0.00 0.00 0.00 0.00 0.00 0.00 0.00 0.00 0.00 0.00 0.00 0.00 0.00 0.00 0.00 0.00 0.00 0.00 0.00 0.00 0.00 0.00 0.00 0.00 0.00 0.00 0.00 0.00 0.00 0.00 0.00 0.00 0.00 0.00 0.00 0.00 0.00 0.00 0.00 0.00 0.00 0.00
0.00 0.00 0.00 0.00 0.00 0.00 0.00 0.00 0.00 0.00 0.00 0.00 0.00 0.00 0.00 0.00 0.00 0.00 0.00 0.00 0.00 0.00 0.00 0.00 0.00 0.00 0.00 0.00 0.00 0.00 0.00 0.00 0.00 0.00 0.00 0.00 0.00 0.00 0.00 0.00 0.00 0.00 0.00 0.00
MSLP
1008.69 1009.54 1010.19 1010.63 1010.89 1011.01 1011.05 1011.05 1011.03 1010.99 1010.91 1010.75 1010.49 1010.13 1009.68 1009.19 1008.72 1008.32 1008.04 1007.91 1007.94 1008.10 1008.36 1008.67 1009.00 1009.31 1009.62 1009.91 1010.21 1010.52 1010.84 1011.18 1011.50 1011.78 1011.99 1012.12 1012.17 1012.14 1012.06 1011.95 1011.85 1011.78 1011.73 1011.69
1009.26 1009.96 1010.46 1010.76 1010.91 1010.96 1010.97 1010.98 1010.99 1010.98 1010.93 1010.78 1010.50 1010.10 1009.60 1009.05 1008.53 1008.10 1007.81 1007.71 1007.78 1007.99 1008.31 1008.67 1009.04 1009.37 1009.67 1009.95 1010.22 1010.52 1010.84 1011.18 1011.52 1011.84 1012.09 1012.26 1012.32 1012.29 1012.20 1012.07 1011.94 1011.85 1011.79 1011.77
1009.66 1010.19 1010.52 1010.69 1010.75 1010.76 1010.78 1010.82 1010.88 1010.93 1010.92 1010.78 1010.50 1010.06 1009.51 1008.90 1008.33 1007.87 1007.58 1007.50 1007.61 1007.89 1008.27 1008.69 1009.09 1009.44 1009.74 1010.00 1010.25 1010.52 1010.83 1011.18 1011.54 1011.89 1012.18 1012.38 1012.47 1012.46 1012.36 1012.22 1012.07 1011.95 1011.88 1011.85
1009.85 1010.20 1010.39 1010.46 1010.47 1010.49 1010.55 1010.67 1010.82 1010.94 1010.98 1010.87 1010.57 1010.10 1009.48 1008.81 1008.17 1007.67 1007.37 1007.30 1007.45 1007.78 1008.22 1008.70 1009.14 1009.52 1009.82 1010.06 1010.29 1010.53 1010.82 1011.16 1011.53 1011.90 1012.23 1012.48 1012.61 1012.62 1012.54 1012.39 1012.23 1012.09 1011.99 1011.95
1009.85 1010.04 1010.12 1010.13 1010.13 1010.20 1010.36 1010.59 1010.86 1011.09 1011.19 1011.11 1010.80 1010.28 1009.59 1008.84 1008.13 1007.57 1007.23 1007.15 1007.32 1007.69 1008.18 1008.70 1009.18 1009.58 1009.88 1010.11 1010.31 1010.52 1010.78 1011.10 1011.48 1011.87 1012.23 1012.51 1012.69 1012.74 1012.68 1012.54 1012.38 1012.22 1012.10 1012.04
1009.72 1009.78 1009.77 1009.76 1009.81 1009.97 1010.24 1010.62 1011.03 1011.37 1011.55 1011.50 1011.18 1010.61 1009.85 1009.00 1008.20 1007.57 1007.17 1007.06 1007.23 1007.62 1008.14 1008.69 1009.20 1009.62 1009.92 1010.14 1010.31 1010.48 1010.71 1011.00 1011.36 1011.76 1012.14 1012.46 1012.68 1012.78 1012.75 1012.64 1012.48 1012.32 1012.19 1012.11
1009.53 1009.49 1009.44 1009.43 1009.55 1009.81 1010.22 1010.75 1011.29 1011.74 1012.00 1011.99 1011.66 1011.05 1010.21 1009.28 1008.38 1007.66 1007.19 1007.03 1007.17 1007.55 1008.08 1008.65 1009.19 1009.61 1009.92 1010.13 1010.27 1010.40 1010.59 1010.85 1011.18 1011.57 1011.96 1012.31 1012.57 1012.71 1012.73 1012.65 1012.51 1012.36 1012.22 1012.13
1009.35 1009.24 1009.17 1009.19 1009.37 1009.73 1010.26 1010.91 1011.57 1012.12 1012.44 1012.46 1012.13 1011.48 1010.59 1009.57 1008.60 1007.79 1007.24 1007.02 1007.11 1007.46 1007.98 1008.56 1009.10 1009.54 1009.85 1010.05 1010.17 1010.28 1010.42 1010.64 1010.95 1011.32 1011.71 1012.07 1012.36 1012.54 1012.60 1012.56 1012.45 1012.31 1012.19 1012.10
1009.23 1009.10 1009.01 1009.06 1009.28 1009.71 1010.32 1011.05 1011.78 1012.38 1012.75 1012.79 1012.46 1011.79 1010.86 1009.80 1008.76 1007.88 1007.27 1006.98 1007.02 1007.33 1007.82 1008.38 1008.92 1009.37 1009.69 1009.89 1010.01 1010.10 1010.22 1010.41 1010.68 1011.03 1011.40 1011.77 1012.08 1012.29 1012.39 1012.39 1012.31 1012.20 1012.09 1012.02
1009.21 1009.06 1008.98 1009.04 1009.28 1009.73 1010.36 1011.10 1011.84 1012.45 1012.83 1012.87 1012.55 1011.88 1010.95 1009.87 1008.80 1007.88 1007.22 1006.87 1006.85 1007.10 1007.55 1008.09 1008.62 1009.08 1009.42 1009.64 1009.78 1009.88 1009.99 1010.17 1010.42 1010.74 1011.10 1011.46 1011.77 1012.00 1012.13 1012.16 1012.12 1012.04 1011.96 1011.91
1009.28 1009.15 1009.07 1009.12 1009.34 1009.75 1010.33 1011.02 1011.71 1012.28 1012.63 1012.66 1012.34 1011.69 1010.78 1009.72 1008.66 1007.73 1007.03 1006.64 1006.56 1006.75 1007.15 1007.66 1008.19 1008.65 1009.02 1009.28 1009.46 1009.59 1009.73 1009.92 1010.17 1010.47 1010.82 1011.17 1011.48 1011.71 1011.86 1011.92 1011.91 1011.86 1011.82 1011.79
1009.41 1009.31 1009.24 1009.27 1009.44 1009.78 1010.26 1010.83 1011.42 1011.90 1012.17 1012.17 1011.85 1011.23 1010.36 1009.35 1008.33 1007.42 1006.72 1006.30 1006.16 1006.30 1006.64 1007.10 1007.61 1008.08 1008.49 1008.80 1009.05 1009.25 1009.44 1009.66 1009.93 1010.24 1010.58 1010.92 1011.22 1011.46 1011.62 1011.70 1011.72 1011.70 1011.68 1011.69
1009.57 1009.51 1009.46 1009.46 1009.57 1009.80 1010.14 1010.57 1011.00 1011.35 1011.53 1011.47 1011.15 1010.56 1009.76 1008.82 1007.87 1007.00 1006.31 1005.87 1005.69 1005.76 1006.03 1006.44 1006.92 1007.40 1007.83 1008.21 1008.53 1008.81 1009.09 1009.37 1009.69 1010.02 1010.37 1010.70 1011.00 1011.24 1011.41 1011.50 1011.55 1011.56 1011.58 1011.61
1009.71 1009.71 1009.68 1009.66 1009.70 1009.81 1010.01 1010.26 1010.52 1010.71 1010.78 1010.66 1010.33 1009.77 1009.04 1008.20 1007.32 1006.52 1005.86 1005.40 1005.18 1005.18 1005.38 1005.72 1006.15 1006.62 1007.08 1007.51 1007.92 1008.29 1008.66 1009.02 1009.39 1009.77 1010.14 1010.49 1010.79 1011.04 1011.21 1011.33 1011.40 1011.45 1011.49 1011.56
1009.79 1009.84 1009.84 1009.81 1009.79 1009.80 1009.85 1009.93 1010.01 1010.05 1010.00 1009.82 1009.47 1008.96 1008.30 1007.55 1006.78 1006.05 1005.43 1004.97 1004.70 1004.63 1004.75 1005.01 1005.38 1005.81 1006.27 1006.74 1007.21 1007.67 1008.12 1008.57 1009.02 1009.45 1009.86 1010.23 1010.55 1010.81 1011.01 1011.15 1011.25 1011.33 1011.41 1011.51
1009.80 1009.90 1009.93 1009.89 1009.82 1009.74 1009.66 1009.58 1009.51 1009.40 1009.25 1009.00 1008.64 1008.17 1007.60 1006.96 1006.29 1005.64 1005.07 1004.62 1004.32 1004.18 1004.20 1004.37 1004.65 1005.02 1005.46 1005.94 1006.45 1006.97 1007.50 1008.02 1008.54 1009.03 1009.48 1009.89 1010.24 1010.53 1010.75 1010.93 1011.07 1011.19 1011.30 1011.43
1009.74 1009.87 1009.91 1009.87 1009.75 1009.59 1009.40 1009.20 1008.99 1008.77 1008.52 1008.23 1007.88 1007.46 1006.98 1006.44 1005.88 1005.33 1004.83 1004.40 1004.07 1003.87 1003.80 1003.85 1004.04 1004.32 1004.70 1005.16 1005.67 1006.22 1006.79 1007.37 1007.94 1008.49 1009.00 1009.45 1009.84 1010.16 1010.43 1010.65 1010.83 1010.99 1011.14 1011.29
1009.66 1009.77 1009.80 1009.73 1009.57 1009.34 1009.06 1008.76 1008.44 1008.13 1007.82 1007.50 1007.17 1006.82 1006.43 1006.02 1005.58 1005.13 1004.70 1004.30 1003.97 1003.71 1003.55 1003.50 1003.57 1003.76 1004.05 1004.44 1004.91 1005.45 1006.04 1006.66 1007.27 1007.86 1008.41 1008.91 1009.34 1009.72 1010.03 1010.29 1010.52 1010.72 1010.90 1011.07
1009.59 1009.64 1009.61 1009.49 1009.28 1008.98 1008.63 1008.24 1007.85 1007.48 1007.13 1006.81 1006.52 1006.24 1005.96 1005.67 1005.36 1005.03 1004.68 1004.33 1003.99 1003.70 1003.47 1003.32 1003.27 1003.34 1003.52 1003.83 1004.23 1004.73 1005.30 1005.91 1006.54 1007.16 1007.75 1008.29 1008.78 1009.20 1009.57 1009.88 1010.15 1010.38 1010.59 1010.77
1009.57 1009.52 1009.40 1009.20 1008.91 1008.54 1008.12 1007.67 1007.23 1006.82 1006.46 1006.17 1005.92 1005.73 1005.55 1005.38 1005.20 1004.98 1004.72 1004.43 1004.11 1003.79 1003.50 1003.26 1003.11 1003.06 1003.13 1003.33 1003.65 1004.08 1004.61 1005.19 1005.82 1006.45 1007.06 1007.64 1008.17 1008.64 1009.06 1009.41 1009.72 1009.98 1010.21 1010.40
1009.64 1009.44 1009.20 1008.88 1008.50 1008.05 1007.57 1007.07 1006.60 1006.18 1005.84 1005.57 1005.39 1005.28 1005.21 1005.15 1005.08 1004.96 1004.79 1004.56 1004.27 1003.94 1003.60 1003.29 1003.05 1002.89 1002.85 1002.93 1003.16 1003.50 1003.96 1004.51 1005.11 1005.73 1006.36 1006.97 1007.54 1008.05 1008.51 1008.92 1009.26 1009.55 1009.78 1009.97
1009.77 1009.41 1009.02 1008.58 1008.10 1007.58 1007.04 1006.51 1006.03 1005.62 1005.29 1005.07 1004.95 1004.91 1004.93 1004.97 1004.98 1004.96 1004.86 1004.67 1004.41 1004.08 1003.72 1003.35 1003.02 1002.77 1002.63 1002.61 1002.73 1002.99 1003.37 1003.86 1004.42 1005.03 1005.66 1006.28 1006.88 1007.44 1007.94 1008.38 1008.76 1009.08 1009.33 1009.52
1009.92 1009.40 1008.87 1008.31 1007.73 1007.14 1006.56 1006.02 1005.55 1005.16 1004.87 1004.70 1004.63 1004.65 1004.73 1004.83 1004.92 1004.95 1004.89 1004.75 1004.50 1004.17 1003.78 1003.37 1002.99 1002.66 1002.42 1002.31 1002.34 1002.50 1002.80 1003.22 1003.73 1004.31 1004.92 1005.55 1006.17 1006.76 1007.31 1007.80 1008.22 1008.57 1008.85 1009.05
1010.01 1009.35 1008.69 1008.03 1007.38 1006.75 1006.16 1005.63 1005.18 1004.82 1004.58 1004.45 1004.43 1004.49 1004.61 1004.75 1004.86 1004.92 1004.89 1004.76 1004.52 1004.18 1003.78 1003.33 1002.90 1002.51 1002.20 1002.00 1001.94 1002.01 1002.22 1002.56 1003.01 1003.54 1004.13 1004.75 1005.38 1005.99 1006.58 1007.12 1007.59 1007.99 1008.32 1008.57
1009.93 1009.18 1008.44 1007.72 1007.03 1006.40 1005.82 1005.32 1004.91 1004.60 1004.41 1004.32 1004.34 1004.42 1004.56 1004.70 1004.82 1004.88 1004.84 1004.70 1004.46 1004.11 1003.69 1003.22 1002.75 1002.31 1001.94 1001.66 1001.51 1001.50 1001.62 1001.87 1002.23 1002.69 1003.23 1003.83 1004.45 1005.09 1005.71 1006.30 1006.84 1007.32 1007.72 1008.05
1009.62 1008.82 1008.04 1007.31 1006.64 1006.03 1005.49 1005.05 1004.70 1004.46 1004.32 1004.27 1004.31 1004.41 1004.54 1004.67 1004.77 1004.81 1004.76 1004.60 1004.34 1003.98 1003.55 1003.06 1002.56 1002.08 1001.66 1001.32 1001.08 1000.96 1000.98 1001.13 1001.39 1001.77 1002.24 1002.78 1003.38 1004.03 1004.68 1005.33 1005.94 1006.51 1007.02 1007.45
Thickness
5740 5729 5722 5731 5740 5741 5738 5733 5730 5738 5756 5758 5756 5758 5765 5772 5770 5769 5771 5772 5772 5770 5772 5771 5766 5762 5758 5754 5750 5745 5740 5736 5731 5725 5720 5715 5712 5710 5707 5704 5700 5696 5693 5690
5726 5721 5736 5747 5749 5745 5739 5733 5732 5742 5759 5759 5756 5757 5768 5772 5771 5773 5773 5774 5774 5772 5770 5766 5763 5760 5756 5752 5748 5744 5740 5735 5730 5724 5720 5717 5712 5709 5706 5702 5698 5695 5691 5688
5721 5733 5747 5746 5744 5739 5739 5735 5732 5735 5751 5760 5754 5749 5759 5770 5775 5776 5778 5778 5777 5774 5770 5765 5761 5758 5754 5750 5747 5743 5739 5734 5729 5725 5720 5715 5711 5707 5703 5699 5696 5693 5690 5687
5730 5742 5743 5742 5739 5740 5729 5744 5744 5744 5739 5735 5746 5728 5751 5763 5764 5770 5773 5775 5775 5775 5772 5766 5761 5757 5753 5750 5747 5743 5739 5735 5730 5725 5718 5712 5706 5701 5700 5697 5694 5693 5690 5687
5727 5738 5738 5734 5741 5744 5738 5751 5751 5749 5741 5736 5745 5735 5744 5763 5758 5765 5772 5774 5775 5774 5772 5766 5762 5758 5755 5752 5747 5743 5738 5734 5729 5725 5719 5713 5707 5704 5701 5698 5694 5692 5689 5687
5736 5750 5748 5746 5753 5754 5752 5749 5750 5750 5740 5722 5741 5735 5734 5756 5762 5767 5773 5775 5774 5774 5772 5768 5764 5759 5754 5751 5746 5742 5737 5732 5728 5724 5720 5714 5708 5704 5700 5696 5693 5690 5688 5686
5727 5741 5753 5757 5746 5749 5748 5731 5715 5713 5711 5720 5748 5741 5742 5764 5774 5775 5773 5774 5775 5773 5769 5765 5760 5755 5751 5747 5744 5740 5735 5730 5728 5724 5720 5716 5711 5706 5701 5696 5693 5690 5687 5685
5718 5722 5745 5753 5748 5742 5744 5736 5708 5693 5700 5720 5743 5740 5753 5774 5779 5780 5779 5776 5773 5770 5767 5763 5760 5755 5751 5747 5743 5739 5735 5730 5727 5724 5721 5717 5713 5707 5703 5699 5695 5691 5688 5686
5724 5726 5753 5759 5761 5754 5743 5739 5742 5726 5725 5724 5743 5754 5759 5773 5770 5772 5773 5771 5768 5768 5766 5763 5760 5756 5752 5747 5743 5740 5736 5731 5728 5725 5721 5717 5713 5708 5704 5701 5698 5694 5691 5688
5739 5727 5743 5755 5758 5758 5756 5751 5744 5731 5716 5714 5736 5746 5743 5753 5760 5765 5767 5766 5767 5768 5766 5764 5760 5757 5753 5749 5745 5742 5737 5733 5729 5726 5722 5718 5714 5710 5706 5702 5698 5694 5692 5689
5749 5732 5735 5744 5742 5744 5749 5748 5747 5741 5737 5717 5712 5728 5763 5763 5766 5766 5768 5769 5769 5767 5765 5763 5760 5758 5754 5750 5746 5741 5737 5734 5730 5726 5723 5719 5714 5711 5707 5703 5699 5696 5693 5690
5752 5742 5731 5742 5760 5765 5756 5751 5746 5727 5726 5733 5724 5730 5773 5772 5773 5772 5770 5771 5771 5769 5767 5764 5761 5757 5753 5749 5745 5742 5738 5734 5731 5727 5724 5719 5716 5712 5707 5703 5701 5698 5694 5691
5745 5736 5720 5724 5737 5750 5749 5752 5751 5745 5736 5728 5720 5732 5770 5773 5772 5773 5771 5770 5769 5768 5766 5763 5759 5755 5752 5749 5746 5743 5740 5736 5732 5728 5723 5719 5715 5712 5707 5704 5702 5699 5696 5693
5746 5735 5722 5711 5724 5740 5741 5747 5749 5741 5726 5726 5731 5740 5757 5764 5765 5768 5769 5769 5768 5766 5764 5761 5756 5754 5751 5749 5746 5743 5740 5737 5733 5728 5723 5719 5715 5712 5709 5706 5703 5700 5697 5694
5750 5735 5737 5741 5749 5751 5746 5745 5746 5741 5740 5731 5736 5743 5753 5763 5766 5769 5770 5768 5766 5764 5763 5760 5756 5754 5751 5749 5746 5744 5740 5737 5734 5728 5723 5719 5716 5713 5709 5706 5703 5700 5697 5694
5751 5738 5740 5740 5750 5751 5746 5749 5748 5745 5746 5743 5743 5745 5765 5770 5771 5768 5768 5766 5763 5762 5762 5762 5759 5755 5752 5749 5746 5743 5740 5737 5734 5728 5723 5720 5716 5712 5708 5705 5702 5699 5696 5693
5743 5738 5729 5727 5743 5742 5733 5749 5750 5749 5753 5749 5739 5748 5763 5762 5763 5764 5766 5764 5762 5762 5763 5761 5760 5757 5755 5752 5749 5743 5741 5738 5733 5728 5723 5719 5715 5711 5708 5705 5702 5698 5695 5692
5738 5733 5729 5725 5727 5710 5742 5765 5761 5753 5753 5757 5755 5758 5760 5761 5765 5768 5770 5766 5763 5763 5762 5761 5760 5759 5758 5756 5752 5747 5742 5737 5732 5727 5723 5719 5715 5710 5707 5703 5700 5697 5695 5692
5748 5733 5723 5719 5714 5723 5746 5758 5757 5746 5742 5758 5755 5757 5760 5763 5762 5761 5768 5768 5766 5764 5762 5761 5760 5759 5757 5755 5752 5747 5741 5736 5731 5726 5722 5718 5714 5709 5705 5702 5699 5697 5694 5691
5743 5737 5721 5715 5706 5705 5732 5754 5762 5748 5730 5753 5755 5752 5754 5753 5737 5743 5761 5764 5764 5763 5761 5759 5758 5756 5753 5752 5750 5744 5739 5734 5729 5726 5722 5719 5714 5709 5704 5701 5698 5696 5693 5690
5724 5722 5713 5709 5707 5719 5740 5752 5750 5719 5720 5746 5749 5747 5746 5742 5741 5749 5758 5758 5758 5757 5756 5755 5752 5749 5748 5748 5745 5739 5736 5732 5730 5726 5722 5717 5713 5709 5704 5701 5698 5694 5692 5689
5720 5715 5713 5712 5703 5708 5739 5740 5728 5726 5739 5740 5740 5740 5739 5740 5744 5747 5749 5749 5750 5749 5749 5748 5744 5743 5744 5744 5740 5735 5731 5731 5729 5724 5718 5714 5711 5707 5704 5698 5695 5692 5689 5685
5722 5722 5717 5716 5714 5726 5733 5730 5732 5734 5730 5731 5731 5733 5732 5732 5734 5737 5739 5741 5743 5743 5742 5741 5738 5736 5737 5737 5734 5729 5728 5728 5724 5718 5714 5710 5707 5704 5700 5695 5691 5688 5685 5682
5716 5724 5715 5712 5718 5723 5725 5726 5726 5725 5722 5723 5724 5725 5725 5723 5726 5728 5731 5734 5735 5735 5734 5733 5731 5729 5728 5730 5729 5727 5725 5723 5718 5713 5709 5706 5702 5699 5695 5691 5687 5682 5678 5676
5698 5702 5699 5698 5706 5709 5712 5713 5713 5714 5715 5715 5715 5716 5716 5717 5718 5720 5722 5725 5727 5728 5728 5727 5724 5723 5723 5723 5722 5722 5720 5717 5712 5709 5705 5702 5698 5694 5688 5683 5678 5676 5672 5670
5691 5688 5683 5683 5693 5692 5695 5702 5702 5700 5700 5701 5702 5703 5707 5709 5710 5712 5714 5718 5720 5720 5720 5719 5718 5717 5718 5717 5716 5715 5714 5712 5708 5704 5701 5697 5693 5688 5683 5676 5670 5667 5665 5664